Location: Camaret
(48.2753°N, 4.5961°W)
Time: 01:25:48
(UTC+00:00)

IRS-1C Rocket - Pass Details

Date: 29 October 2020
Orbit: 801 x 805 km, 99.0° (Epoch: 26 November)

Event Time Altitude Azimuth Distance (km) Brightness Sun altitude
Rises 18:29:22 0° 167° (SSE) 3,303 7.2 -14.8°
Reaches altitude 10° 18:31:41 10° 169° (S) 2,377 6.5 -15.1°
Maximum altitude 18:36:57 77° 255° (WSW) 830 4.3 -16.0°
Drops below altitude 10° 18:42:16 10° 342° (NNW) 2,397 6.7 -16.9°
Sets 18:44:37 0° 344° (NNW) 3,333 7.5 -17.3°
